Location: Unspecified
(15.6830°N, 0.0000°E)
Time: 23:43:54
(UTC+00:00)

ISS - Visible Passes

Search period start: 25 April 2019 00:00
Search period end: 05 May 2019 00:00
Orbit: 408 x 410 km, 51.6° (Epoch: 26 April)

Date Brightness Start Highest point End Pass type
(mag) Time Alt. Az. Time Alt. Az. Time Alt. Az.
25 Apr -3.9 04:16:27 84° SSE 04:16:31 85° SE 04:19:49 10° NE visible
26 Apr -0.5 03:28:12 13° ENE 03:28:12 13° ENE 03:28:45 10° ENE visible
26 Apr -1.4 05:01:48 10° NW 05:02:20 10° NW 05:02:53 10° NW visible
27 Apr -1.7 04:12:36 19° NNW 04:12:36 19° NNW 04:14:07 10° N visible
